Find Local Weather

World > North America > United States > Michigan

Grand Haven, Michigan Regional Weather

Lat: 43.06N, Lon: 86.22W
Wx Zone: MIZ056
Warning FLW WEATHER ALERT - (More Info. Click Here) Warning
Feedback
Expires:201806181600;;730614
ASUS43 KDTX 181510
RWRMI 
MICHIGAN HOURLY REGIONAL WEATHER ROUNDUP
NATIONAL WEATHER SERVICE DETROIT/PONTIAC MI
ISSUED BY NATIONAL WEATHER SERVICE GRAND RAPIDS MI
1100 AM EDT MON JUN 18 2018

NOTE: "FAIR" INDICATES FEW OR NO CLOUDS BELOW 12,000 FEET WITH NO
SIGNIFICANT WEATHER AND/OR OBSTRUCTION TO VISIBILITY.


MIZ043>046-050>051-056>058-064>065-071>073-077>080-181600-
SOUTHWEST LOWER MICHIGAN
  
CITY           SKY/WX    TMP DP  RH WIND       PRES   REMARKS
BATTLE CREEK   FAIR      87  74  64 W13       29.99F HX  95           
BENTON HARBOR  CLOUDY    83  73  72 SW14G23   29.99S                  
BIG RAPIDS     LGT RAIN  74  70  89 W5        29.94F                  
COLDWATER      FAIR      87  70  56 W13       30.01S HX  91           
HOLLAND        FAIR      81  71  71 W16       29.97R                  
GRAND RAPIDS   PTSUNNY   84  74  71 SW20G26   29.96R HX  91           
KALAMAZOO      FAIR      89  72  56 W17       29.99S HX  96           
MARSHALL       FAIR      85  71  62 W16G22    29.99S HX  91           
MOUNT PLEASANT PTSUNNY   81  73  76 W9        29.93S                  
MUSKEGON       CLOUDY    75  68  78 W12       29.95R                  
STURGIS        FAIR      86  73  65 W14G21    30.01S HX  93           
$$

SKY/WX - Weather  TMP - Temperature  DP - Dewpoint  RH - Relative Humidity
WIND - Wind Direction/Speed PRES - Barometric Pressure